Stations météo

Publicité
Preston, Moor Park, Grande-Bretagne (99113): Température de l'air & dewpoint: 07.08.2020 12:00:00 - 13.08.2020 12:00:00 (BST)Preston, Moor Park, Grande-Bretagne (99113): Quantités de précipitations: 07.08.2020 12:00:00 - 13.08.2020 12:00:00 (BST)
Date & Time tt [°C] td [°C] rr [mm]
13.08.2020 12:00:00 - - -
13.08.2020 11:00:00 - - -
13.08.2020 10:00:00 - - -
13.08.2020 09:00:00 - - -
13.08.2020 08:00:00 - - -
13.08.2020 07:00:00 - - -
13.08.2020 06:00:00 - - -
13.08.2020 05:00:00 - - -
13.08.2020 04:00:00 - - -
13.08.2020 03:00:00 - - -
13.08.2020 02:00:00 - - -
13.08.2020 01:00:00 - - -
13.08.2020 00:00:00 - - -
12.08.2020 23:00:00 - - -
12.08.2020 22:00:00 - - -
12.08.2020 21:00:00 - - -
12.08.2020 20:00:00 - - -
12.08.2020 19:00:00 - - -
12.08.2020 18:00:00 - - -
12.08.2020 17:00:00 - - -
12.08.2020 16:00:00 - - -
12.08.2020 15:00:00 - - -
12.08.2020 14:00:00 - - -
12.08.2020 13:00:00 - - -
12.08.2020 12:00:00 - - -
12.08.2020 11:00:00 - - -
12.08.2020 10:00:00 - - -
12.08.2020 09:00:00 - - -
12.08.2020 08:00:00 - - -
12.08.2020 07:00:00 - - -
12.08.2020 06:00:00 - - -
12.08.2020 05:00:00 - - -
12.08.2020 04:00:00 - - -
12.08.2020 03:00:00 - - -
12.08.2020 02:00:00 - - -
12.08.2020 01:00:00 19,4 18,5 -
12.08.2020 00:00:00 19,7 18,3 0,0
11.08.2020 23:00:00 20,6 18,9 0,0
11.08.2020 22:00:00 21,3 18,6 0,0
11.08.2020 21:00:00 21,9 18,8 0,0
11.08.2020 20:00:00 23,1 19,1 0,0
11.08.2020 19:00:00 24,5 19,8 0,0
11.08.2020 18:00:00 26,6 21,3 0,0
11.08.2020 17:00:00 27,5 21,1 0,0
11.08.2020 16:00:00 27,8 20,5 0,0
11.08.2020 15:00:00 27,3 20,6 0,0
11.08.2020 14:00:00 25,7 20,4 0,0
11.08.2020 13:00:00 24,4 19,4 0,0
11.08.2020 12:00:00 23,6 19,1 0,0
11.08.2020 11:00:00 22,2 18,2 0,0
11.08.2020 10:00:00 21,0 17,9 0,0
11.08.2020 09:00:00 19,7 17,0 0,0
11.08.2020 08:00:00 18,3 16,7 0,0
11.08.2020 07:00:00 17,7 16,7 0,0
11.08.2020 06:00:00 17,6 16,6 0,0
11.08.2020 05:00:00 17,7 17,1 0,6
11.08.2020 04:00:00 17,8 17,1 1,0
11.08.2020 03:00:00 17,6 16,9 1,8
11.08.2020 02:00:00 17,6 16,5 5,6
11.08.2020 01:00:00 19,0 15,7 0,0
11.08.2020 00:00:00 19,7 15,6 0,0
10.08.2020 23:00:00 19,7 16,5 0,2
10.08.2020 22:00:00 20,9 16,7 0,0
10.08.2020 21:00:00 21,3 17,6 0,0
10.08.2020 20:00:00 21,3 18,0 0,0
10.08.2020 19:00:00 21,8 17,8 0,0
10.08.2020 18:00:00 24,3 18,4 0,0
10.08.2020 17:00:00 24,6 18,5 0,0
10.08.2020 16:00:00 23,5 19,5 0,4
10.08.2020 15:00:00 23,2 17,0 0,0
10.08.2020 14:00:00 24,1 17,3 0,0
10.08.2020 13:00:00 23,3 17,2 0,0
10.08.2020 12:00:00 22,7 18,2 0,0
10.08.2020 11:00:00 20,5 16,0 0,0
10.08.2020 10:00:00 19,1 15,5 0,0
10.08.2020 09:00:00 18,3 14,8 0,0
10.08.2020 08:00:00 16,7 14,3 0,0
10.08.2020 07:00:00 15,5 14,2 0,0
10.08.2020 06:00:00 15,0 13,9 0,0
10.08.2020 05:00:00 15,1 13,9 0,0
10.08.2020 04:00:00 15,4 14,1 0,0
10.08.2020 03:00:00 15,6 14,1 0,0
10.08.2020 02:00:00 15,7 14,0 0,0
10.08.2020 01:00:00 15,6 13,7 0,0
10.08.2020 00:00:00 16,1 13,7 0,0
09.08.2020 23:00:00 16,7 13,9 0,0
09.08.2020 22:00:00 17,6 14,2 0,0
09.08.2020 21:00:00 18,9 14,6 0,0
09.08.2020 20:00:00 19,8 14,9 0,0
09.08.2020 19:00:00 20,9 14,9 0,0
09.08.2020 18:00:00 21,9 15,6 0,0
09.08.2020 17:00:00 22,4 15,5 0,0
09.08.2020 16:00:00 22,4 15,6 0,0
09.08.2020 15:00:00 22,1 15,8 0,0
09.08.2020 14:00:00 21,2 15,2 0,0
09.08.2020 13:00:00 20,0 14,9 0,0
09.08.2020 12:00:00 18,0 13,9 0,0
09.08.2020 11:00:00 17,4 13,6 0,0
09.08.2020 10:00:00 16,4 13,3 0,0
09.08.2020 09:00:00 15,8 12,8 0,0
09.08.2020 08:00:00 15,2 12,9 0,0
09.08.2020 07:00:00 14,3 12,4 0,0
09.08.2020 06:00:00 13,8 12,0 0,0
09.08.2020 05:00:00 13,8 11,8 0,0
09.08.2020 04:00:00 13,6 11,5 0,0
09.08.2020 03:00:00 13,7 11,3 0,0
09.08.2020 02:00:00 13,9 11,3 0,0
09.08.2020 01:00:00 14,0 11,4 0,0
09.08.2020 00:00:00 14,7 11,5 0,0
08.08.2020 23:00:00 15,5 11,6 0,0
08.08.2020 22:00:00 16,4 11,8 0,0
08.08.2020 21:00:00 17,6 11,7 0,0
08.08.2020 20:00:00 19,8 13,2 0,0
08.08.2020 19:00:00 21,2 13,4 0,0
08.08.2020 18:00:00 22,0 14,1 0,0
08.08.2020 17:00:00 22,9 15,3 0,0
08.08.2020 16:00:00 23,6 15,3 0,0
08.08.2020 15:00:00 24,7 14,6 0,0
08.08.2020 14:00:00 24,4 16,1 0,0
08.08.2020 13:00:00 23,1 15,1 0,0
08.08.2020 12:00:00 22,7 13,8 0,0
08.08.2020 11:00:00 21,9 13,4 0,0
08.08.2020 10:00:00 20,1 15,3 0,0
08.08.2020 09:00:00 18,7 16,3 0,0
08.08.2020 08:00:00 16,8 15,8 0,0
08.08.2020 07:00:00 16,0 15,7 0,0
08.08.2020 06:00:00 16,1 15,7 0,0
08.08.2020 05:00:00 16,6 16,0 0,0
08.08.2020 04:00:00 16,8 16,1 0,0
08.08.2020 03:00:00 17,2 16,4 0,0
08.08.2020 02:00:00 17,2 16,4 0,0
08.08.2020 01:00:00 16,0 15,4 0,0
08.08.2020 00:00:00 16,5 15,3 0,0
07.08.2020 23:00:00 17,3 15,9 0,0
07.08.2020 22:00:00 18,4 16,5 0,0
07.08.2020 21:00:00 19,8 16,8 0,0
07.08.2020 20:00:00 20,9 16,9 0,0
07.08.2020 19:00:00 21,2 16,9 0,0
07.08.2020 18:00:00 22,9 17,6 0,0
07.08.2020 17:00:00 23,0 17,9 0,0
07.08.2020 16:00:00 23,1 18,0 0,0
07.08.2020 15:00:00 22,4 18,4 0,0
07.08.2020 14:00:00 23,5 18,5 0,0
07.08.2020 13:00:00 22,6 18,0 0,0
07.08.2020 12:00:00 22,4 18,5 0,0

tt = Température de l'air
td = dewpoint
rr = Quantités de précipitations

stations d'obs. à proximité